Location: Frizzleburg
(41.0764°N, 80.4548°W)
Time: 09:51:22
(UTC+00:00)

Cosmos 1408 Rocket - Pass Details

Date: 17 November 2019
Orbit: 602 x 630 km, 82.6° (Epoch: 08 December)

Event Time Altitude Azimuth Distance (km) Brightness Sun altitude
Rises 11:15:21 0° 206° (SSW) 2,839 6.8 -10.8°
Reaches altitude 10° 11:17:40 10° 215° (SW) 1,942 5.9 -10.3°
Maximum altitude 11:21:39 36° 283° (WNW) 960 4.0 -9.6°
Drops below altitude 10° 11:25:40 10° 351° (N) 1,966 5.9 -8.9°
Sets 11:28:03 0° 360° (N) 2,879 6.8 -8.5°
